Wray Municipal Airport, CO

1:26 PM MDT on July 24, 2017 (GMT -0600)
Wray Municipal Airport

Weather History for K2V5 - March, 2014

Change the Weather History Date:

Tuesday, March 4, 2014

  Actual Average (KSYF) Record (KSYF)
Temperature  
Mean Temperature 48 °F -  
Max Temperature 67 °F 49 °F 75 °F (2017)
Min Temperature 30 °F 22 °F 14 °F (2015)
Degree Days  
Heating Degree Days 16    
Moisture  
Dew Point 29 °F    
Average Humidity 61    
Maximum Humidity 89    
Minimum Humidity 16    
Precipitation  
Precipitation 0.00 in - - ()
Sea Level Pressure  
Sea Level Pressure 29.88 in    
Wind  
Wind Speed 7 mph (WNW)    
Max Wind Speed 23 mph    
Max Gust Speed 30 mph    
Visibility 10 miles    
Events Snow    
Averages and records for this station are not official NWS values.
T = Trace of Precipitation, MM = Missing Value Source: NWS Daily Summary

Daily Weather History Graph

Daily Weather History Graph

Search for Another Location

Airport or City:

Trip Planner

Search our weather history database for the weather conditions in past years. The results will help you decide how hot, cold, wet, or windy it might be!

Date:

Astronomy

Mar. 04, 2014 Rise Set
Actual Time 6:17 AM MST 5:44 PM MST
Civil Twilight 5:50 AM MST 6:11 PM MST
Nautical Twilight 5:19 AM MST 6:42 PM MST
Astronomical Twilight 4:47 AM MST 7:14 PM MST
Moon 8:05 AM MST (3/4) 9:53 PM MST (3/4)
Length of Visible Light 12h 20m
Length of Day
11h 26m
Waxing Crescent, 15% of the Moon is Illuminated
Mar 4
Waxing Crescent
Mar 8
First Quarter
Mar 16
Full
Mar 23
Last Quarter
Mar 30
New

Hourly Weather History & Observations

Time (MST) Temp. Windchill Dew Point Humidity Pressure Visibility Wind Dir Wind Speed Gust Speed Precip Events Conditions
12:15 AM 35.2 °F 28.8 °F 27.9 °F 74% 29.92 in 10.0 mi WSW 8.1 mph - N/A   Clear
12:35 AM 35.8 °F 30.9 °F 27.7 °F 72% 29.92 in 10.0 mi WSW 5.8 mph - N/A   Clear
12:55 AM 34.0 °F 28.8 °F 27.5 °F 77% 29.92 in 10.0 mi West 5.8 mph - N/A   Clear
1:15 AM 34.2 °F 29.0 °F 27.3 °F 76% 29.92 in 10.0 mi West 5.8 mph - N/A   Clear
1:35 AM 33.8 °F 27.0 °F 27.3 °F 77% 29.92 in 10.0 mi West 8.1 mph - N/A   Clear
1:55 AM 34.0 °F 28.0 °F 26.6 °F 74% 29.91 in 10.0 mi WSW 6.9 mph - N/A   Clear
2:15 AM 33.1 °F 26.1 °F 26.6 °F 77% 29.91 in 10.0 mi WSW 8.1 mph - N/A   Clear
2:35 AM 32.4 °F 26.0 °F 26.2 °F 78% 29.90 in 10.0 mi WSW 6.9 mph - N/A   Clear
2:55 AM 32.4 °F 26.0 °F 26.1 °F 78% 29.89 in 10.0 mi West 6.9 mph - N/A   Clear
3:15 AM 33.1 °F 26.9 °F 25.7 °F 74% 29.89 in 10.0 mi WSW 6.9 mph - N/A   Clear
3:35 AM 33.1 °F 26.1 °F 25.9 °F 75% 29.89 in 10.0 mi West 8.1 mph - N/A   Scattered Clouds
3:55 AM 32.7 °F 28.3 °F 25.9 °F 76% 29.89 in 10.0 mi West 4.6 mph - N/A   Overcast
4:15 AM 32.0 °F 27.5 °F 25.7 °F 78% 29.89 in 10.0 mi West 4.6 mph - N/A   Mostly Cloudy
4:35 AM 31.3 °F 27.9 °F 25.7 °F 80% 29.88 in 10.0 mi SW 3.5 mph - N/A   Mostly Cloudy
4:55 AM 30.2 °F 25.4 °F 25.5 °F 83% 29.88 in 10.0 mi WSW 4.6 mph - N/A   Scattered Clouds
5:15 AM 30.2 °F 22.6 °F 25.5 °F 83% 29.88 in 10.0 mi WSW 8.1 mph - N/A   Clear
5:35 AM 30.0 °F 24.1 °F 25.3 °F 83% 29.87 in 10.0 mi WSW 5.8 mph - N/A   Clear
5:55 AM 30.7 °F 23.3 °F 25.3 °F 80% 29.88 in 10.0 mi West 8.1 mph - N/A   Clear
6:15 AM 30.2 °F 23.4 °F 25.3 °F 82% 29.87 in 10.0 mi WSW 6.9 mph - N/A   Clear
6:35 AM 30.2 °F 22.6 °F 25.5 °F 83% 29.87 in 10.0 mi WSW 8.1 mph - N/A   Clear
6:55 AM 31.1 °F 23.7 °F 25.9 °F 81% 29.88 in 10.0 mi WSW 8.1 mph - N/A   Scattered Clouds
7:15 AM 32.7 °F 27.3 °F 27.1 °F 80% 29.88 in 10.0 mi SW 5.8 mph - N/A   Scattered Clouds
7:35 AM 34.9 °F - 28.0 °F 76% 29.88 in 10.0 mi North - - N/A   Clear
7:55 AM 38.3 °F 35.9 °F 29.7 °F 71% 29.88 in 10.0 mi WSW 3.5 mph - N/A   Clear
8:15 AM 41.4 °F 38.4 °F 31.1 °F 67% 29.88 in 10.0 mi WSW 4.6 mph - N/A   Clear
8:35 AM 44.8 °F 41.0 °F 31.1 °F 59% 29.88 in 10.0 mi SW 6.9 mph - N/A   Clear
8:55 AM 44.6 °F - 32.0 °F 61% 29.88 in 10.0 mi Calm Calm - N/A   Clear
9:35 AM 48.9 °F - 32.2 °F 52% 29.87 in 10.0 mi SW 4.6 mph - N/A   Scattered Clouds
9:55 AM 51.6 °F - 32.0 °F 47% 29.87 in 10.0 mi West 4.6 mph - N/A   Clear
10:15 AM 57.0 °F - 31.3 °F 38% 29.86 in 10.0 mi West 5.8 mph - N/A   Clear
10:35 AM 59.7 °F - 28.2 °F 30% 29.86 in 10.0 mi SW 4.6 mph - N/A   Clear
10:55 AM 61.7 °F - 25.3 °F 25% 29.85 in 10.0 mi SW 5.8 mph - N/A   Clear
11:15 AM 63.9 °F - 24.8 °F 23% 29.84 in 10.0 mi SSW 6.9 mph - N/A   Clear
11:35 AM 65.3 °F - 22.6 °F 20% 29.83 in 10.0 mi SW 5.8 mph - N/A   Clear
11:55 AM 65.8 °F - 22.6 °F 19% 29.83 in 10.0 mi SW 4.6 mph - N/A   Clear
12:15 PM 64.8 °F - 21.7 °F 19% 29.82 in 10.0 mi WSW 3.5 mph - N/A   Clear
12:35 PM 67.1 °F - 19.9 °F 17% 29.81 in 10.0 mi SW 4.6 mph - N/A   Scattered Clouds
12:55 PM 65.7 °F - 19.2 °F 17% 29.81 in 10.0 mi SSW 3.5 mph - N/A   Scattered Clouds
1:15 PM 66.2 °F - 18.3 °F 16% 29.80 in 10.0 mi Calm Calm - N/A   Clear
1:35 PM 67.1 °F - 20.8 °F 17% 29.80 in 10.0 mi West 6.9 mph - N/A   Clear
1:55 PM 65.3 °F - 21.4 °F 19% 29.80 in 10.0 mi WNW 9.2 mph - N/A   Scattered Clouds
2:15 PM 65.5 °F - 22.6 °F 20% 29.80 in 10.0 mi NNW 9.2 mph - N/A   Mostly Cloudy
2:35 PM 63.0 °F - 28.0 °F 27% 29.80 in 10.0 mi North 18.4 mph 23.0 mph N/A   Scattered Clouds
2:55 PM 60.6 °F - 30.7 °F 32% 29.81 in 10.0 mi NNW 18.4 mph 23.0 mph N/A   Clear
3:15 PM 59.4 °F - 32.0 °F 36% 29.80 in 10.0 mi North 16.1 mph 21.9 mph N/A   Clear
3:35 PM 58.5 °F - 32.4 °F 37% 29.80 in 10.0 mi North 18.4 mph 24.2 mph N/A   Clear
3:55 PM 56.1 °F - 33.1 °F 42% 29.81 in 10.0 mi NNW 19.6 mph 25.3 mph N/A   Clear
4:15 PM 54.7 °F - 33.6 °F 45% 29.81 in 10.0 mi North 19.6 mph 29.9 mph N/A   Clear
4:35 PM 52.9 °F - 35.4 °F 52% 29.82 in 10.0 mi North 23.0 mph 26.5 mph N/A   Clear
4:55 PM 51.1 °F - 36.0 °F 56% 29.82 in 10.0 mi North 15.0 mph 25.3 mph N/A   Clear
5:15 PM 49.5 °F - 34.7 °F 57% 29.83 in 10.0 mi North 16.1 mph 21.9 mph N/A   Clear
5:35 PM 48.2 °F - 34.0 °F 58% 29.83 in 10.0 mi North 12.7 mph - N/A   Scattered Clouds
5:55 PM 46.9 °F - 33.1 °F 59% 29.83 in 10.0 mi North 15.0 mph 19.6 mph N/A   Overcast
6:15 PM 46.0 °F 41.0 °F 33.8 °F 62% 29.85 in 10.0 mi North 10.4 mph 18.4 mph N/A   Overcast
6:35 PM 45.1 °F 40.8 °F 34.2 °F 65% 29.86 in 10.0 mi North 8.1 mph - N/A   Overcast
6:55 PM 44.1 °F 41.5 °F 33.8 °F 67% 29.87 in 10.0 mi NNE 4.6 mph - N/A   Overcast
7:15 PM 42.8 °F 40.1 °F 33.8 °F 70% 29.89 in 10.0 mi North 4.6 mph - N/A   Overcast
7:35 PM 42.8 °F 40.1 °F 34.0 °F 71% 29.90 in 10.0 mi NNE 4.6 mph - N/A   Overcast
7:55 PM 42.1 °F 36.1 °F 33.3 °F 71% 29.92 in 10.0 mi North 10.4 mph - N/A   Overcast
8:15 PM 41.0 °F 35.2 °F 32.9 °F 73% 29.93 in 10.0 mi North 9.2 mph - N/A   Overcast
8:35 PM 40.3 °F 33.9 °F 32.9 °F 75% 29.95 in 10.0 mi North 10.4 mph - N/A   Overcast
8:55 PM 39.7 °F 33.7 °F 32.5 °F 75% 29.97 in 10.0 mi NNE 9.2 mph - N/A   Mostly Cloudy
9:15 PM 38.8 °F 32.6 °F 32.5 °F 78% 29.98 in 10.0 mi NNE 9.2 mph - N/A   Mostly Cloudy
9:35 PM 38.3 °F 33.2 °F 32.5 °F 80% 29.99 in 10.0 mi NNE 6.9 mph - N/A   Scattered Clouds
9:55 PM 37.4 °F 32.8 °F 32.4 °F 82% 30.01 in 10.0 mi North 5.8 mph - N/A   Mostly Cloudy
10:15 PM 37.4 °F 32.8 °F 32.7 °F 83% 30.01 in 10.0 mi NNE 5.8 mph - N/A   Overcast
10:35 PM 37.4 °F 32.8 °F 32.7 °F 83% 30.02 in 10.0 mi North 5.8 mph - N/A   Overcast
10:55 PM 37.0 °F - 32.5 °F 84% 30.04 in 10.0 mi Calm Calm - N/A   Overcast
11:15 PM 36.5 °F 32.7 °F 32.4 °F 85% 30.04 in 10.0 mi North 4.6 mph - N/A   Overcast
11:35 PM 36.1 °F 28.7 °F 32.2 °F 86% 30.05 in 10.0 mi North 10.4 mph - N/A   Light Drizzle
11:55 PM 35.2 °F 30.3 °F 32.4 °F 89% 30.05 in 7.0 mi North 5.8 mph - N/A Snow Light Snow